{"data":{"norad_id":56893,"intl_designator":"2023-083T","name":"STARLINK-6216","alt_names":[],"object_type":"PAYLOAD","status":"ACTIVE","operator":null,"country":"US","launch_date":"2023-06-12","launch_site_code":"AFETR","launch_vehicle":null,"mission":null,"orbit_class":"UNKNOWN","rcs_meters":null,"size_class":null,"mass_kg":null,"dimensions":null,"purposes":["comms"],"wikipedia_slug":null,"has_3d_model":false,"image_url":null,"decayed_at":null,"tle_current":{"epoch":"2026-05-25T00:03:22.046400Z","epoch_age_seconds":85323,"freshness":"FRESH","line1":"1 56893U 23083T   26145.00233850 -.00002238  00000+0 -71794-4 0  9994","line2":"2 56893  43.0048  14.0290 0001031 261.7557  98.3178 15.27589693163423","mean_motion":15.27589693,"eccentricity":0.0001031,"inclination_deg":43.0048,"raan_deg":14.029,"arg_perigee_deg":261.7557,"mean_anomaly_deg":98.3178,"bstar":-7.1794e-5,"rev_number":16342,"period_min":94.266150563769,"perigee_km":482.31268656998,"apogee_km":483.7274571582,"semimajor_km":6861.1570718641,"source":"CELESTRAK","updated_at":"2026-05-25T13:38:18.170533Z"}}}